MARKET Weather Reports


Display with metric or nautical units.
time (UTC)temp
F
wind
direction
speed
MPH
gust
MPH
rain 1hr
in
rain 24hr
in
rain mn
in
humidity
%
barometer
mb
20260506044727 40 305 10.0 12.0 0.00 0.00 0.00 79 1012.8
20260506042726 40 300 12.0 13.0 0.00 0.00 0.00 77 1012.6
20260506040726 40 297 12.0 14.0 0.00 0.00 0.00 78 1012.4
20260506034727 40 297 13.0 14.0 0.00 0.00 0.00 78 1012.1
20260506032726 40 298 14.0 16.0 0.00 0.00 0.00 77 1011.9
20260506030726 40 294 14.0 16.0 0.00 0.00 0.00 78 1011.7
20260506024726 40 294 12.0 14.0 0.00 0.00 0.00 80 1011.6
20260506022726 41 299 15.0 17.0 0.00 0.00 0.00 74 1011.4
20260506020725 41 297 14.0 15.0 0.00 0.00 0.00 75 1011.2
20260506014726 41 294 15.0 16.0 0.00 0.00 0.00 74 1011.2
20260506012725 40 289 16.0 18.0 0.00 0.00 0.00 77 1011.0
20260506010726 40 288 17.0 20.0 0.00 0.00 0.00 73 1010.7
20260506004725 40 286 17.0 19.0 0.00 0.00 0.00 71 1010.5
20260506002726 41 276 14.0 16.0 0.00 0.00 0.00 71 1010.4
20260506000726 41 274 13.0 16.0 0.00 0.00 0.00 75 1010.3
20260505234725 41 266 16.0 18.0 0.00 0.00 0.00 72 1010.2
20260505232726 41 258 16.0 18.0 0.00 0.00 0.00 73 1010.0
20260505230726 41 234 12.0 15.0 0.00 0.00 0.00 80 1010.0
20260505224725 41 229 11.0 12.0 0.00 0.00 0.00 82 1010.1
20260505222725 41 217 9.0 10.0 0.00 0.00 0.00 76 1010.0
20260505220725 41 213 7.0 8.0 0.00 0.00 0.00 71 1010.0
20260505214726 41 213 8.0 9.0 0.00 0.00 0.00 76 1009.9
20260505212725 41 226 8.0 9.0 0.00 0.00 0.00 75 1009.9
20260505210724 41 232 7.0 9.0 0.00 0.00 0.00 77 1009.8
20260505204725 41 219 11.0 12.0 0.00 0.00 0.00 76 1009.5
20260505202726 41 212 11.0 11.0 0.00 0.00 0.00 74 1009.3
20260505200724 41 210 12.0 13.0 0.00 0.00 0.00 71 1009.3
20260505194724 41 202 12.0 13.0 0.00 0.00 0.00 67 1009.1
20260505192725 40 200 12.0 15.0 0.00 0.00 0.00 69 1009.1
20260505190724 41 249 13.0 17.0 0.00 0.00 0.00 66 1009.5
20260505184724 41 291 27.0 33.0 0.00 0.00 0.00 70 1008.9
20260505182724 41 262 10.0 12.0 0.00 0.00 0.00 81 1009.0
20260505180724 41 231 10.0 11.0 0.00 0.00 0.00 81 1008.6
20260505174724 41 219 11.0 13.0 0.00 0.00 0.00 77 1008.5
20260505172723 41 211 14.0 16.0 0.00 0.00 0.00 75 1008.2
20260505170723 41 211 13.0 14.0 0.00 0.00 0.00 72 1008.2
20260505164724 42 210 13.0 15.0 0.00 0.00 0.00 74 1008.3
20260505162724 41 205 14.0 15.0 0.00 0.00 0.00 73 1008.2
20260505160723 41 204 12.0 13.0 0.00 0.00 0.00 72 1008.2
20260505152723 42 200 8.0 9.0 0.00 0.00 0.00 68 1008.2
20260505150723 42 188 4.0 5.0 0.00 0.00 0.00 62 1008.3
20260505124722 41 357 11.0 12.0 0.00 0.00 0.00 67 1007.4
20260505122723 41 348 12.0 15.0 0.00 0.00 0.00 70 1007.2
20260505120723 40 341 15.0 17.0 0.00 0.00 0.00 73 1007.0
20260505114723 41 336 14.0 16.0 0.00 0.00 0.00 70 1006.9
20260505112723 41 338 16.0 19.0 0.00 0.00 0.00 68 1006.8
20260505110722 41 330 18.0 20.0 0.00 0.00 0.00 69 1006.6
20260505100722 40 328 17.0 18.0 0.00 0.00 0.00 73 1006.3
20260505094722 40 323 17.0 20.0 0.00 0.00 0.00 71 1006.1
20260505092722 40 317 17.0 20.0 0.00 0.00 0.00 69 1005.9
20260505090722 40 314 18.0 21.0 0.00 0.00 0.00 72 1005.7
20260505084723 40 314 21.0 24.0 0.00 0.00 0.00 70 1005.3
20260505082722 40 313 21.0 23.0 0.00 0.00 0.00 70 1005.1
20260505080722 40 304 19.0 23.0 0.00 0.00 0.00 70 1005.0
20260505074721 40 301 16.0 18.0 0.00 0.00 0.00 75 1005.0
20260505072722 40 292 16.0 19.0 0.00 0.00 0.00 75 1004.8
20260505070721 40 286 18.0 20.0 0.00 0.00 0.00 80 1004.6
20260505064721 40 286 16.0 18.0 0.00 0.00 0.00 84 1004.6
20260505062721 40 295 14.0 15.0 0.00 0.00 0.00 85 1004.3
20260505060722 39 299 14.0 16.0 0.00 0.00 0.00 85 1004.3
20260505054721 38 294 16.0 19.0 0.00 0.00 0.00 85 1004.2
20260505052722 38 293 17.0 20.0 0.00 0.00 0.00 89 1004.0
20260505050721 38 296 16.0 19.0 0.00 0.00 0.00 87 1003.8